Terminal Aerodrome Forecast
Issued by NWS

Home | Current Version | Previous Version | Text Only | Print | Product List | Glossary On
Versions: 1 2 3 4 5 6 7 8 9 10 11 12 13 14 15 16 17 18 19 20 21 22 23 24 25 26 27 28
000
FTUS44 KLIX 262300
TAFHDC
TAF
KHDC 262335Z 2700/2724 24005KT P6SM SKC
     FM270700 30007KT P6SM SKC
     FM271500 35011KT P6SM SKC
     FM272200 35007KT P6SM SKC=

USA.gov is the U.S. government's official web portal to all federal, state and local government web resources and services.